Weather History for KGMU - November, 2012

Change the Weather History Date:

Tuesday, November 27, 2012

  Actual Average Record
Temperature  
Mean Temperature 54 °F -  
Max Temperature 57 °F 57 °F 75 °F (2001)
Min Temperature 51 °F 39 °F 28 °F (2013)
Degree Days  
Heating Degree Days 11    
Growing Degree Days 4 (Base 50)    
Moisture  
Dew Point 39 °F    
Average Humidity 59    
Maximum Humidity 83    
Minimum Humidity 35    
Precipitation  
Precipitation 0.00 in - - ()
Sea Level Pressure  
Sea Level Pressure 30.14 in    
Wind  
Wind Speed 5 mph (SW)    
Max Wind Speed 9 mph    
Max Gust Speed -    
Visibility 10 miles    
Events Rain    
Averages and records for this station are not official NWS values.
T = Trace of Precipitation, MM = Missing Value Source: NWS Daily Summary

Daily Weather History Graph

Daily Weather History Graph

Search for Another Location

Airport or City:

Trip Planner

Search our weather history database for the weather conditions in past years. The results will help you decide how hot, cold, wet, or windy it might be!

Date:

Astronomy

Nov. 27, 2012 Rise Set
Actual Time 7:15 AM EST 5:18 PM EST
Civil Twilight 6:47 AM EST 5:46 PM EST
Nautical Twilight 6:16 AM EST 6:17 PM EST
Astronomical Twilight 5:46 AM EST 6:47 PM EST
Moon 4:48 PM EST (11/27) 6:20 AM EST (11/27)
Length of Visible Light 10h 58m
Length of Day
10h 03m
Waxing Gibbous, 99% of the Moon is Illuminated
Nov 27
Waxing Gibbous
Nov 28
Full
Dec 6
Last Quarter
Dec 13
New
Dec 20
First Quarter

Hourly Weather History & Observations

Time (EST) Temp. Dew Point Humidity Pressure Visibility Wind Dir Wind Speed Gust Speed Precip Events Conditions
12:53 AM 52.0 °F 25.0 °F 35% 30.16 in 10.0 mi WSW 4.6 mph - N/A   Mostly Cloudy
1:53 AM 53.1 °F 28.0 °F 38% 30.14 in 10.0 mi SW 3.5 mph - 0.00 in Rain Light Rain
2:53 AM 53.1 °F 28.0 °F 38% 30.13 in 10.0 mi Calm Calm - 0.00 in   Overcast
3:53 AM 52.0 °F 27.0 °F 38% 30.14 in 10.0 mi SW 5.8 mph - N/A   Overcast
4:53 AM 51.1 °F 28.9 °F 43% 30.12 in 10.0 mi SW 6.9 mph - N/A   Scattered Clouds
5:53 AM 51.1 °F 30.0 °F 44% 30.12 in 10.0 mi West 4.6 mph - N/A   Overcast
7:53 AM 52.0 °F 30.9 °F 45% 30.14 in 10.0 mi SSW 5.8 mph - N/A   Overcast
8:53 AM 53.1 °F 34.0 °F 48% 30.15 in 10.0 mi SSW 5.8 mph - N/A   Overcast
9:53 AM 53.1 °F 35.1 °F 50% 30.16 in 10.0 mi SSW 8.1 mph - N/A   Overcast
10:53 AM 55.0 °F 41.0 °F 59% 30.15 in 10.0 mi WSW 8.1 mph - N/A   Mostly Cloudy
11:27 AM 55.4 °F 42.8 °F 63% 30.14 in 10.0 mi SSW 9.2 mph - N/A   Mostly Cloudy
11:53 AM 55.9 °F 44.1 °F 64% 30.14 in 10.0 mi SSW 8.1 mph - N/A   Overcast
12:53 PM 55.0 °F 48.0 °F 77% 30.12 in 9.0 mi WSW 4.6 mph - 0.00 in Rain Light Rain
1:28 PM 55.4 °F 46.4 °F 72% 30.10 in 10.0 mi SW 5.8 mph - 0.00 in   Overcast
1:53 PM 55.9 °F 46.0 °F 69% 30.09 in 10.0 mi SW 5.8 mph - 0.00 in   Overcast
2:53 PM 57.0 °F 46.0 °F 67% 30.09 in 10.0 mi Calm Calm - N/A   Overcast
3:53 PM 57.0 °F 45.0 °F 64% 30.10 in 10.0 mi Calm Calm - N/A   Overcast
4:05 PM 57.2 °F 44.6 °F 63% 30.11 in 10.0 mi SW 3.5 mph - N/A   Overcast
4:53 PM 55.0 °F 50.0 °F 83% 30.12 in 7.0 mi South 3.5 mph - N/A   Overcast
5:53 PM 55.0 °F 50.0 °F 83% 30.13 in 9.0 mi Calm Calm - N/A   Mostly Cloudy
6:53 PM 53.1 °F 42.1 °F 66% 30.14 in 10.0 mi North 3.5 mph - N/A   Clear
7:53 PM 53.1 °F 41.0 °F 64% 30.17 in 10.0 mi North 6.9 mph - N/A   Overcast
8:53 PM 53.1 °F 41.0 °F 64% 30.18 in 10.0 mi NNE 5.8 mph - N/A   Overcast
9:53 PM 53.1 °F 39.0 °F 59% 30.20 in 10.0 mi NE 8.1 mph - N/A   Overcast
10:53 PM 51.1 °F 39.0 °F 63% 30.21 in 10.0 mi ENE 6.9 mph - N/A   Overcast
11:53 PM 51.1 °F 39.9 °F 66% 30.22 in 10.0 mi NE 8.1 mph - N/A   Overcast